Location: Jetmore Motorplex
(37.9889°N, 99.8876°W)
Time: 03:50:23
(UTC+00:00)

SL-16 R/B - Pass Details

Date: 17 February 2020
Orbit: 843 x 847 km, 71.0° (Epoch: 09 April)

Event Time Altitude Azimuth Distance (km) Brightness Sun altitude
Exits shadow 11:30:05 36° 326° (NW) 1,314 2.9 -23.8°
Drops below altitude 10° 11:34:16 10° 8° (N) 2,471 4.7 -23.0°
Sets 11:36:53 0° 16° (NNE) 3,409 5.6 -22.5°
